Location: Aulon
(43.1898°N, 0.8198°E)
Time: 01:40:34
(UTC+00:00)

Daily predictions for brighter satellites

Satellite Brightness Start Highest point End
(mag) Time Altitude Azimuth Time Altitude Azimuth Time Altitude Azimuth
Cosmos 2237 Rocket 4.0 03:43:06 26° ENE 03:43:06 26° ENE 03:46:02 10° NE
BREEZE-M DEB (TANK) 4.4 03:55:50 67° N 03:55:57 68° N 04:00:48 10° E
Lacrosse 4 Rocket 4.1 04:04:26 18° ENE 04:04:26 18° ENE 04:05:57 10° NE
Gbstr 26 Del rocket 4.3 04:13:50 80° SE 04:13:50 80° SE 04:21:46 10° ENE
Cosmos 1464 Rocket 4.3 04:13:46 60° ESE 04:14:03 61° E 04:20:07 10° NNE
FALCON 9 R/B 4.0 04:24:54 16° S 04:24:54 16° S 04:26:09 10° SSE
Atlas Centaur 2 3.9 04:26:50 29° S 04:27:03 29° S 04:33:40 10° SE
ATLAS CENTAUR R/B 3.8 04:31:45 16° NE 04:31:45 16° NE 04:32:39 10° NE
METEOR-M 4.2 04:29:23 10° NNE 04:34:34 72° E 04:34:34 72° E
Lacrosse 5 rocket 3.8 04:40:11 14° SE 04:40:11 14° SE 04:40:42 10° SE
Cosmos 372 Rocket 4.1 04:40:33 69° NE 04:40:45 70° ENE 04:45:57 10° SSE
USA 215 4.1 04:37:23 10° NE 04:43:08 34° NNW 04:43:15 34° NNW
USA 307 4.0 04:44:43 41° ENE 04:44:43 41° ENE 04:47:33 10° NE
NOSS 0 Rocket 4.3 04:45:41 49° NNW 04:45:41 49° NNW 04:50:34 10° NNE
ADEOS 3.7 04:39:55 10° NNE 04:45:09 74° ESE 04:47:41 31° S
USA 305 3.7 04:50:49 46° NE 04:50:49 46° NE 04:53:52 10° NE
Nadezhda 4 Rocket 4.0 04:43:29 10° N 04:49:38 78° E 04:55:45 10° SSE
USA 308 3.5 04:53:18 53° NE 04:53:18 53° NE 04:56:37 10° NE
Cosmos 1400 Rocket 3.4 04:53:19 56° E 04:53:19 56° E 04:57:09 10° NNE
SL-4 R/B 3.2 04:55:30 34° NE 04:55:30 34° NE 04:57:55 10° NE
Cosmos 2034 Rocket 3.9 04:49:13 10° S 04:55:35 90° E 05:01:59 10° N
Cosmos 1943 Rocket 3.8 04:51:10 10° N 04:56:11 32° NE 05:01:13 10° ESE
Meteor 1-16 Rocket 4.3 04:50:39 10° S 04:56:34 81° E 05:02:30 10° NNE
Cosmos 1570 Rocket 4.1 04:57:36 61° NNW 04:57:36 61° NNW 05:02:10 10° NNE
Cosmos 540 Rocket 4.4 05:01:40 32° N 05:01:40 32° N 05:04:42 10° N
CZ-4B R/B 3.8 04:56:32 10° SSE 04:57:25 17° SSE 04:57:25 17° SSE
USA 306 3.2 05:02:36 59° NNE 05:02:36 59° NNE 05:06:08 10° NE
SJ-12 4.0 04:59:11 10° NNE 05:03:20 77° E 05:04:11 55° S
NOSS 3-2 (A) 3.4 05:00:28 30° SSW 05:03:25 75° ESE 05:09:46 10° NE
Cosmos 1814 Rocket 3.8 05:03:50 66° NW 05:03:50 66° NW 05:08:43 10° NNE
Cosmos 2298 Rocket 4.4 05:00:29 20° N 05:04:12 62° ENE 05:09:28 10° SSE
Cosmos 2369 Rocket 4.2 05:01:55 10° N 05:06:24 24° NE 05:10:51 10° ESE
COSMO-SKYMED 1 2.5 05:06:29 10° SSE 05:10:49 86° ENE 05:12:33 36° N
CZ-4B R/B 3.2 05:08:46 10° NNE 05:12:23 58° E 05:16:09 10° S
CZ-4B R/B 4.3 05:09:51 10° N 05:13:34 54° NNW 05:13:34 54° NNW
USA 267 4.0 05:10:28 10° S 05:16:07 31° SW 05:16:23 31° WSW
SL-16 R/B 2.3 05:11:00 10° SSW 05:16:38 78° ESE 05:22:20 10° NNE
Cosmos 2278 Rocket 3.3 05:18:36 26° SW 05:18:36 26° SW 05:21:38 10° SSW
NOSS 3-2 (C) 3.9 05:11:43 10° SSW 05:17:07 56° ESE 05:23:16 10° NE
CZ-2C R/B 2.8 05:19:17 24° SSW 05:19:40 24° S 05:23:05 10° SE
ERBS 4.4 05:18:11 15° S 05:20:10 26° SE 05:22:57 10° ENE
Cosmos 972 Rocket 4.4 05:14:46 10° SSW 05:21:09 84° ESE 05:26:50 10° NNE
Cosmos 2219 Rocket 4.2 05:23:36 12° NNW 05:23:36 12° NNW 05:24:33 10° N
ERS-2 2.1 05:19:55 10° SSE 05:23:33 79° ENE 05:25:10 31° N
CENTAUR R/B 2.7 05:18:35 10° SSW 05:24:17 69° ESE 05:31:06 10° NE
Cosmos 2237 Rocket 2.8 05:24:59 35° NW 05:24:59 35° NW 05:30:07 10° N
Cosmos 2208 Rocket 4.2 05:23:25 39° WSW 05:24:55 50° WNW 05:30:11 10° N
ATLAS 5 CENTAUR R/B 2.5 05:25:47 35° SSW 05:25:47 35° SSW 05:30:10 10° SSE
Cosmos 2026 Rocket 4.3 05:19:00 10° N 05:25:22 70° E 05:31:44 10° SSE
H-2A R/B 2.8 05:25:40 10° NNE 05:29:24 73° ESE 05:33:08 10° S
FALCON 9 DEB 3.2 05:30:00 53° S 05:30:25 61° SE 05:33:33 10° ENE
Meteor PRIRODA 3.4 05:30:26 10° N 05:34:04 79° WNW 05:37:41 10° SSW
Cosmos 1626 Rocket 4.0 05:37:41 38° WNW 05:38:12 39° W 05:42:20 10° SSW
Cosmos 1703 3.7 05:39:02 38° WSW 05:39:02 38° WSW 05:42:15 10° SSW
FALCON 9 DEB 2.8 05:38:25 60° SW 05:38:55 86° SE 05:42:02 10° NE
Lacrosse 4 Rocket 2.1 05:40:48 34° WNW 05:40:56 35° NW 05:44:58 10° NNE
Cosmos 1300 2.6 05:40:46 10° S 05:44:34 87° E 05:48:24 10° N
Meteor 1-11 4.1 05:40:33 10° NNW 05:46:08 79° W 05:51:43 10° S
SAR-Lupe-4 3.4 05:43:35 10° S 05:47:09 70° WSW 05:50:19 13° NNW
Cosmos 1315 Rocket 2.7 05:45:13 10° S 05:49:06 84° E 05:53:03 10° NNE
[s.n.47389] 3.9 05:48:24 17° SSW 05:49:58 35° SE 05:52:23 10° ENE
[s.n.47399] 3.9 05:48:26 17° SSW 05:50:01 35° SE 05:52:25 10° ENE
[s.n.47393] 3.9 05:48:28 17° SSW 05:50:03 35° SE 05:52:28 10° ENE
[s.n.47353] 3.9 05:48:32 17° SSW 05:50:07 35° SE 05:52:32 10° ENE
[s.n.47355] 3.9 05:48:35 17° SSW 05:50:10 36° SE 05:52:36 10° ENE
[s.n.47365] 3.9 05:48:37 17° SSW 05:50:13 36° SE 05:52:39 10° ENE
[s.n.47383] 3.9 05:48:43 17° SSW 05:50:18 36° SE 05:52:43 10° ENE
[s.n.47400] 3.9 05:48:40 17° SSW 05:50:19 36° SE 05:52:47 10° ENE
[s.n.47378] 3.9 05:48:48 17° SSW 05:50:24 36° SE 05:52:50 10° ENE
[s.n.47395] 3.9 05:48:51 17° SSW 05:50:27 36° SE 05:52:52 10° ENE
[s.n.47379] 3.9 05:48:57 17° SSW 05:50:33 36° SE 05:52:59 10° ENE
[s.n.47370] 3.9 05:48:58 17° SSW 05:50:34 36° SE 05:52:59 10° ENE
[s.n.47351] 3.9 05:48:56 17° SSW 05:50:36 37° SE 05:53:05 10° ENE
[s.n.47394] 3.8 05:49:02 17° SSW 05:50:40 36° SE 05:53:06 10° ENE
[s.n.47354] 3.8 05:49:07 17° SSW 05:50:43 36° SE 05:53:09 10° ENE
[s.n.47360] 3.8 05:49:08 17° SSW 05:50:45 36° SE 05:53:11 10° ENE
[s.n.47369] 3.8 05:49:13 17° SSW 05:50:50 36° SE 05:53:16 10° ENE
[s.n.47406] 3.8 05:49:15 17° SSW 05:50:52 36° SE 05:53:19 10° ENE
[s.n.47384] 3.8 05:49:18 17° SSW 05:50:56 36° SE 05:53:22 10° ENE
[s.n.47356] 3.8 05:49:21 17° SSW 05:50:58 36° SE 05:53:25 10° ENE
[s.n.47407] 3.8 05:49:24 17° SSW 05:51:02 36° SE 05:53:29 10° ENE
[s.n.47385] 3.8 05:49:22 16° SSW 05:51:04 37° SE 05:53:33 10° ENE
[s.n.47358] 3.8 05:49:32 17° SSW 05:51:09 37° SE 05:53:36 10° ENE
[s.n.47398] 3.8 05:49:33 17° SSW 05:51:12 37° SE 05:53:38 10° ENE
[s.n.47361] 3.8 05:49:37 17° SSW 05:51:15 37° SE 05:53:42 10° ENE
[s.n.47392] 3.8 05:49:39 17° SSW 05:51:18 37° SE 05:53:44 10° ENE
[s.n.47382] 3.8 05:49:43 17° SSW 05:51:22 37° SE 05:53:47 10° ENE
[s.n.47359] 3.8 05:49:43 17° SSW 05:51:24 37° SE 05:53:52 10° ENE
[s.n.47401] 3.8 05:49:50 17° SSW 05:51:29 37° SE 05:53:55 10° ENE
[s.n.47380] 3.8 05:49:47 16° SSW 05:51:30 37° SE 05:53:59 10° ENE
[s.n.47386] 3.8 05:49:57 17° SSW 05:51:36 37° SE 05:54:02 10° ENE
[s.n.47408] 3.8 05:49:55 16° SSW 05:51:37 38° SE 05:54:07 10° ENE
[s.n.47396] 3.8 05:50:02 17° SSW 05:51:41 37° SE 05:54:08 10° ENE
[s.n.47391] 3.8 05:50:04 17° SSW 05:51:43 37° SE 05:54:10 10° ENE
[s.n.47402] 3.8 05:50:08 17° SSW 05:51:47 37° SE 05:54:14 10° ENE
deb Chang Zheng 4 3.8 05:47:47 10° N 05:51:48 43° WNW 05:55:47 10° SW
[s.n.47404] 3.8 05:50:11 17° SSW 05:51:51 37° SE 05:54:17 10° ENE
[s.n.47403] 3.8 05:50:14 17° SSW 05:51:54 37° SE 05:54:21 10° ENE
[s.n.47381] 3.8 05:50:17 17° SSW 05:51:57 37° SE 05:54:24 10° ENE
[s.n.47372] 3.8 05:50:21 17° SSW 05:52:01 37° SE 05:54:27 10° ENE
[s.n.47405] 3.8 05:50:23 17° SSW 05:52:04 38° SE 05:54:30 10° ENE
[s.n.47368] 3.8 05:50:28 17° SSW 05:52:08 38° SE 05:54:35 10° ENE
[s.n.47350] 3.8 05:50:30 17° SSW 05:52:10 38° SE 05:54:38 10° ENE
[s.n.47349] 3.8 05:50:27 16° SSW 05:52:13 38° SE 05:54:42 10° ENE
[s.n.47367] 3.8 05:50:34 16° SSW 05:52:16 38° SE 05:54:44 10° ENE
[s.n.47373] 3.8 05:50:34 16° SSW 05:52:19 38° SE 05:54:49 10° ENE
[s.n.47377] 3.8 05:50:37 16° SSW 05:52:22 38° SE 05:54:52 10° ENE
[s.n.47371] 3.8 05:50:40 16° SSW 05:52:25 38° SE 05:54:55 10° ENE
[s.n.47362] 3.8 05:50:42 16° SSW 05:52:28 39° SE 05:54:58 10° ENE
[s.n.47363] 3.8 05:50:46 16° SSW 05:52:32 39° SE 05:55:01 10° ENE
[s.n.47374] 3.8 05:50:52 16° SSW 05:52:36 38° SE 05:55:04 10° ENE
[s.n.47357] 3.7 05:50:57 16° SSW 05:52:39 38° SE 05:55:07 10° ENE
Cosmos 2195 Rocket 4.4 05:46:30 10° NNW 05:52:40 63° W 05:58:43 10° S
[s.n.47390] 3.7 05:51:01 16° SSW 05:52:43 38° SE 05:55:10 10° ENE
[s.n.47387] 3.7 05:51:03 16° SSW 05:52:45 38° SE 05:55:13 10° ENE
[s.n.47375] 3.7 05:51:04 16° SSW 05:52:46 38° SE 05:55:14 10° ENE
[s.n.47376] 3.7 05:51:02 16° SSW 05:52:48 39° SE 05:55:18 10° ENE
[s.n.47366] 3.7 05:51:13 16° SSW 05:52:56 39° SE 05:55:23 10° ENE
[s.n.47352] 3.7 05:51:15 16° SSW 05:52:59 39° SE 05:55:27 10° ENE
[s.n.47364] 3.7 05:51:18 16° SSW 05:53:03 39° SE 05:55:31 10° ENE
[s.n.47388] 3.7 05:51:21 16° SSW 05:53:06 39° SE 05:55:34 10° ENE
[s.n.47397] 3.7 05:51:28 16° SSW 05:53:11 39° SE 05:55:38 10° ENE
Cosmos 2297 3.8 05:50:12 11° NNW 05:55:39 61° WSW 06:01:17 10° S
MOS 1 Rocket 3.6 05:51:48 10° S 05:56:27 44° W 06:00:52 10° NNW
SKYMED 2 4.4 05:55:15 10° SSW 05:59:00 28° W 06:01:10 19° NW
Cosmos 1346 Rocket 2.8 05:55:13 10° NNW 05:59:08 59° W 06:03:03 10° S
USA 238 DEB 3.7 05:52:40 10° SW 05:59:09 61° NW 06:06:00 10° NNE
USA 238 3.7 05:52:48 10° SW 05:59:16 61° NW 06:06:06 10° NNE
Cosmos 836 Rocket 4.4 05:54:05 10° SSW 05:59:19 74° WNW 06:04:35 10° NNE
Cosmos 1428 Rocket 4.5 05:55:47 10° NNW 06:01:58 64° W 06:08:05 10° S
SAR-Lupe-1 4.4 06:00:08 10° S 06:03:33 43° W 06:06:59 10° NNW
Cosmos 1758 Rocket 3.7 05:59:42 10° NNW 06:04:04 52° W 06:08:21 10° S
Cosmos 1689 Rocket 2.5 06:03:10 10° SSW 06:05:52 36° W 06:07:23 21° NW
ATLAS CENTAUR R/B 2.6 06:07:56 18° NW 06:08:13 18° NW 06:10:51 10° N
BREEZE M DEB (TANK) 1.6 06:11:50 19° WSW 06:13:19 73° NNW 06:17:33 10° ENE
Atlas Centaur 2 4.5 06:10:03 10° WSW 06:15:45 23° SSW 06:21:58 10° SSE
SL-19 R/B 4.1 06:12:07 10° NNE 06:15:46 75° ESE 06:18:56 10° S
Cosmos 1726 Rocket 3.4 06:12:36 10° SSW 06:16:53 71° W 06:21:13 10° N
MOS 1-B 4.4 06:13:03 10° NNE 06:18:52 85° ESE 06:24:38 10° SSW
Cosmos 2058 Rocket 3.3 06:14:31 10° S 06:18:54 74° E 06:23:21 10° NNE
Cosmos 1892 3.1 06:15:46 10° N 06:19:37 68° E 06:23:27 10° SSE
YAOGAN 6 3.0 06:16:09 10° N 06:19:37 39° WNW 06:23:04 10° SW
Cosmos 1603 4.1 06:14:19 10° SSW 06:19:50 67° ESE 06:25:27 10° NNE
Spot 2 3.9 06:16:23 10° NNE 06:20:27 82° WNW 06:24:36 10° SSW
FALCON 9 DEB 3.5 06:19:09 16° W 06:21:15 38° NNW 06:24:11 10° NE
GEOS 3 Rocket 3.7 06:16:13 10° SSE 06:21:34 74° SW 06:26:59 10° NW
USA 307 4.0 06:20:53 15° WNW 06:23:42 28° NNW 06:27:22 10° NE
Cosmos 2279 Rocket 4.0 06:22:43 10° SSW 06:28:53 62° W 06:35:07 10° N
CZ-4B DEB 4.2 06:24:20 10° N 06:29:53 66° WNW 06:35:21 10° SSW
FALCON 9 DEB 3.5 06:27:20 12° W 06:30:01 37° NNW 06:32:59 10° NE
USA 305 4.1 06:26:57 13° WNW 06:30:02 26° NNW 06:33:38 10° NE
In-Cosmos 22 Rocket 4.1 06:24:37 10° NNW 06:30:05 79° W 06:35:24 10° S
PSLV R/B 4.3 06:26:41 10° N 06:30:28 40° WNW 06:34:18 10° SW
Cosmos 2292 Rocket 2.8 06:28:40 10° NNW 06:31:43 63° W 06:35:18 10° S
USA 308 4.1 06:29:28 12° WNW 06:32:46 26° NNW 06:36:24 10° NE
Cosmos 1408 2.9 06:29:44 10° N 06:33:20 69° E 06:36:56 10° SSE
SL-4 R/B 3.2 06:31:05 11° WNW 06:34:08 26° N 06:37:41 10° NE
Cosmos 2098 Rocket 4.0 06:30:52 10° NNW 06:35:42 33° W 06:39:38 10° SSW
Okean O Rocket 1.7 06:31:27 10° NNE 06:35:49 82° ESE 06:40:09 10° SSW
Cosmos 1825 Rocket 4.3 06:32:34 10° NNW 06:36:33 32° W 06:40:30 10° SSW
SMAP 3.0 06:33:16 10° N 06:37:55 69° WNW 06:42:31 10° SSW
Cosmos 2263 4.3 06:33:36 10° NNW 06:39:18 84° ENE 06:45:01 10° SSE
Iridium 4 Rocket 4.5 06:33:56 10° SSE 06:39:37 61° E 06:45:28 10° N
Cosmos 1943 Rocket 2.7 06:34:44 10° NW 06:40:01 41° WSW 06:45:16 10° S
CZ-2C R/B 2.7 06:35:50 10° S 06:41:00 62° W 06:46:21 10° NNW
H-2A R/B 2.7 06:37:39 10° N 06:42:06 61° WNW 06:46:31 10° SSW
USA 306 4.2 06:38:56 10° WNW 06:42:24 24° NNW 06:45:53 10° NE
Cosmos 1939 Rocket 3.2 06:40:52 10° NNE 06:44:46 68° E 06:48:35 10° S
Envisat 3.7 06:42:00 10° N 06:46:26 31° WNW 06:50:51 10° SW
Cosmos 773 Rocket 4.0 06:42:38 10° SSW 06:47:53 83° WNW 06:53:07 10° NNE
Cosmos 2369 Rocket 2.3 06:45:20 10° NNW 06:50:49 58° WSW 06:56:16 10° S
Cosmos 1076 Rocket 4.5 06:47:14 10° N 06:51:24 50° ENE 06:55:31 10° SSE
Meteor 2-10 Rocket 3.8 06:47:23 10° SSW 06:53:10 66° WNW 06:58:54 10° N
